"America/Chicago Time","Lifetime Energy (kWh)","Power (W)","AC Volts RMS (V) ","AC Amps RMS (mA)","Grid Frequency (Hz)","Inverter Temperature (C)"
"06/08/12 05:47:52","104.4668","0.0","214.34","0","60.03","18"
"06/08/12 06:02:49","104.4673","0.0","213.75","0","60.03","20"
"06/08/12 06:07:48","104.4676","5.1","213.42","226","60.03","20"
"06/08/12 06:12:49","104.4679","0.0","212.98","0","60.03","21"
"06/08/12 06:17:50","104.4685","13.9","213.06","0","60.0","21"
"06/08/12 06:22:49","104.469","8.4","216.24","0","60.03","21"
"06/08/12 06:27:48","104.4697","10.8","211.5","71","60.0","22"
"06/08/12 06:32:49","104.4705","12.8","213.16","155","60.03","22"
"06/08/12 06:37:50","104.4715","19.9","214.7","191","60.03","23"
"06/08/12 06:42:49","104.4727","29.7","213.97","229","60.0","23"
"06/08/12 06:47:48","104.4742","12.5","213.88","84","60.03","23"
"06/08/12 06:52:48","104.4759","16.8","215.16","17","60.0","24"
"06/08/12 06:57:48","104.4779","19.5","214.83","309","60.0","24"
"06/08/12 07:02:49","104.4802","34.7","215.04","248","60.0","24"
"06/08/12 07:07:49","104.4827","38.2","214.19","239","60.03","25"
"06/08/12 07:12:48","104.4854","33.9","214.52","181","60.0","25"
"06/08/12 07:17:49","104.4885","46.5","214.12","275","60.03","26"
"06/08/12 07:22:50","104.492","53.2","214.17","281","60.0","26"
"06/08/12 07:27:48","104.4957","57.9","214.72","156","60.03","27"
"06/08/12 07:32:49","104.4998","55.3","214.39","111","60.03","27"
"06/08/12 07:37:49","104.5038","63.0","214.97","329","60.0","28"
"06/08/12 07:42:49","104.5085","61.6","215.17","318","60.03","28"
"06/08/12 07:47:49","104.5139","75.9","215.15","376","60.0","29"
"06/08/12 07:52:49","104.5198","83.0","214.85","405","60.0","29"
"06/08/12 07:57:49","104.5265","87.5","215.65","428","60.0","30"
"06/08/12 08:02:49","104.5332","88.2","215.82","428","60.0","31"
"06/08/12 08:07:48","104.5402","89.9","215.36","439","60.03","31"
"06/08/12 08:12:49","104.5469","77.3","214.58","382","60.03","32"
"06/08/12 08:17:50","104.5529","60.8","213.51","315","60.0","32"
"06/08/12 08:22:50","104.5563","37.8","214.02","90","60.03","32"
"06/08/12 08:27:50","104.5586","25.9","212.53","106","60.0","31"
"06/08/12 08:32:49","104.5609","40.6","214.31","102","60.03","31"
"06/08/12 08:37:50","104.5645","36.5","214.5","102","60.03","30"
"06/08/12 08:42:50","104.5688","67.5","214.61","344","60.03","30"
"06/08/12 08:47:49","104.5748","78.3","213.9","391","60.0","30"
"06/08/12 08:52:50","104.5813","85.4","214.05","425","60.0","31"
"06/08/12 08:57:49","104.5871","64.2","214.76","332","60.03","31"
"06/08/12 09:02:48","104.5929","76.4","215.1","385","60.03","31"
"06/08/12 09:07:49","104.6011","112.8","215.99","535","60.03","32"
"06/08/12 09:12:50","104.61","90.9","215.16","445","60.03","32"
"06/08/12 09:17:49","104.6167","80.7","214.67","402","60.0","32"
"06/08/12 09:22:49","104.6218","37.7","214.85","231","60.0","32"
"06/08/12 09:27:49","104.6258","48.6","214.32","418","60.03","32"
"06/08/12 09:32:49","104.6298","55.4","213.42","340","60.03","31"
"06/08/12 09:37:49","104.6338","45.0","212.41","393","60.03","31"
"06/08/12 09:42:49","104.6378","56.8","214.71","222","60.0","31"
"06/08/12 09:47:49","104.642","57.4","213.72","379","60.03","30"
"06/08/12 09:52:48","104.6462","55.3","214.58","332","60.0","30"
"06/08/12 09:57:50","104.6507","48.3","216.42","310","60.0","30"
"06/08/12 10:02:49","104.6554","67.9","215.32","344","60.03","30"
"06/08/12 10:07:49","104.6613","102.3","215.95","491","60.0","30"
"06/08/12 10:12:49","104.6678","68.7","215.2","350","60.0","31"
"06/08/12 10:17:48","104.6726","48.3","214.75","217","60.03","31"
"06/08/12 10:22:48","104.6759","43.2","214.41","326","60.03","31"
"06/08/12 10:27:49","104.6786","32.9","214.08","235","60.03","31"
"06/08/12 10:32:48","104.6808","25.7","214.83","63","60.0","30"
"06/08/12 10:37:50","104.6836","34.8","214.35","217","60.03","30"
"06/08/12 10:42:49","104.6868","35.4","213.46","117","60.0","30"
"06/08/12 10:47:50","104.6901","37.2","214.52","216","60.0","30"
"06/08/12 10:52:50","104.6935","46.8","214.75","172","60.0","30"
"06/08/12 10:57:49","104.6965","32.1","214.64","200","60.03","30"
"06/08/12 11:02:49","104.699","21.9","214.14","152","60.0","30"
"06/08/12 11:07:49","104.7012","38.1","210.42","277","60.0","30"
"06/08/12 11:12:50","104.704","38.1","216.15","197","60.03","30"
"06/08/12 11:17:49","104.7067","35.6","216.02","88","60.03","29"
"06/08/12 11:22:50","104.7104","54.2","214.99","141","60.0","30"
"06/08/12 11:27:49","104.7148","67.5","215.24","317","60.03","30"
"06/08/12 11:32:50","104.7214","94.2","212.37","463","60.0","30"
"06/08/12 11:37:49","104.7282","71.9","215.28","361","60.03","31"
"06/08/12 11:42:49","104.734","70.3","214.47","354","59.96","31"
"06/08/12 11:47:49","104.7387","38.7","215.83","102","60.03","31"
"06/08/12 11:52:50","104.7423","55.6","214.86","379","60.03","31"
"06/08/12 11:57:50","104.747","49.7","215.55","357","60.03","31"
"06/08/12 12:02:50","104.7501","40.6","215.44","98","60.0","30"
"06/08/12 12:07:49","104.7536","55.2","215.22","337","60.03","30"
"06/08/12 12:12:49","104.7575","37.4","214.34","183","60.03","30"
"06/08/12 12:17:49","104.7605","26.1","214.27","182","60.0","30"
"06/08/12 12:22:49","104.7615","15.5","214.05","8","60.03","29"
"06/08/12 12:27:49","104.7624","25.0","214.91","53","60.03","29"
"06/08/12 12:32:48","104.7646","32.5","215.16","82","60.03","28"
"06/08/12 12:37:49","104.768","53.9","214.43","170","60.0","28"
"06/08/12 12:42:49","104.7717","50.9","215.03","228","60.03","28"
"06/08/12 12:47:49","104.7751","46.3","214.98","91","60.03","28"
"06/08/12 12:52:49","104.7778","29.8","214.63","245","60.0","28"
"06/08/12 12:57:49","104.7803","24.8","214.87","222","60.03","28"
"06/08/12 13:02:49","104.7824","29.5","214.78","242","60.03","28"
"06/08/12 13:07:50","104.7848","29.9","215.05","261","60.03","27"
"06/08/12 13:12:48","104.7876","37.5","215.93","172","60.03","27"
"06/08/12 13:17:48","104.7915","36.1","215.05","76","60.0","27"
"06/08/12 13:22:49","104.7948","43.9","215.37","326","60.0","27"
"06/08/12 13:27:49","104.7982","44.6","214.91","397","60.0","27"
"06/08/12 13:32:49","104.8019","35.9","215.01","279","60.03","27"
"06/08/12 13:37:49","104.8037","24.8","213.93","41","60.0","27"
"06/08/12 13:42:50","104.8056","13.8","215.25","200","60.03","27"
"06/08/12 13:47:50","104.8077","30.6","214.24","84","60.03","27"
"06/08/12 13:52:48","104.8099","29.0","214.94","163","60.0","27"
"06/08/12 13:57:49","104.8136","52.0","215.47","377","60.03","27"
"06/08/12 14:02:49","104.8187","74.7","215.46","370","60.03","27"
"06/08/12 14:07:48","104.8244","86.7","215.89","421","60.0","27"
"06/08/12 14:12:50","104.8302","73.6","214.28","367","60.03","28"
"06/08/12 14:17:49","104.8372","64.8","214.46","327","60.03","29"
"06/08/12 14:22:50","104.8428","68.0","215.14","343","60.03","30"
"06/08/12 14:27:49","104.8455","14.3","214.51","92","60.03","31"
"06/08/12 14:52:48","104.8562","86.3","216.3","421","60.0","28"
"06/08/12 14:57:49","104.8617","65.2","216.42","329","60.0","28"
"06/08/12 15:02:49","104.8671","71.0","215.02","357","60.03","28"
"06/08/12 15:07:49","104.872","61.2","214.85","191","60.03","29"
"06/08/12 15:12:49","104.8755","35.5","214.53","97","60.03","29"
"06/08/12 15:17:49","104.8793","51.5","214.18","356","60.0","29"
"06/08/12 15:22:48","104.8832","48.8","214.22","350","60.03","29"
"06/08/12 15:27:49","104.8906","143.1","216.52","662","60.03","30"
"06/08/12 15:32:49","104.9011","123.5","216.95","579","60.0","31"
"06/08/12 15:37:49","104.9092","79.9","215.54","394","60.0","32"
"06/08/12 15:42:49","104.9139","40.3","215.19","311","60.0","32"
"06/08/12 15:47:48","104.9178","58.1","214.31","220","60.0","31"
"06/08/12 15:52:50","104.9216","40.9","214.51","305","60.03","31"
"06/08/12 15:57:50","104.9254","48.6","214.34","315","60.03","31"
"06/08/12 16:02:49","104.9289","40.9","215.01","154","60.0","30"
"06/08/12 16:07:49","104.9349","81.5","215.98","396","60.03","30"
"06/08/12 16:12:49","104.9422","118.9","216.71","562","60.0","31"
"06/08/12 16:17:49","104.95","49.5","215.74","369","60.0","31"
"06/08/12 16:22:49","104.9533","38.2","214.45","200","60.03","30"
"06/08/12 16:27:48","104.9573","66.4","215.36","338","60.03","30"
"06/08/12 16:32:49","104.9611","46.8","214.19","411","60.03","29"
"06/08/12 16:37:49","104.9681","102.8","216.53","493","60.0","30"
"06/08/12 16:42:50","104.9756","87.1","215.83","429","60.03","30"
"06/08/12 16:47:50","104.9816","33.5","214.84","184","60.03","30"
"06/08/12 16:52:49","104.9871","62.4","215.19","319","60.03","30"
"06/08/12 16:57:49","104.9907","21.9","215.24","181","60.03","29"
"06/08/12 17:02:49","104.9928","22.5","215.35","184","60.03","29"
"06/08/12 17:07:50","104.9962","56.4","215.47","398","60.0","28"
"06/08/12 17:12:49","105.0008","36.5","216.1","275","60.03","28"
"06/08/12 17:17:48","105.0052","41.6","215.96","251","60.03","28"
"06/08/12 17:22:50","105.0093","42.2","216.35","334","60.03","28"
"06/08/12 17:27:49","105.0134","46.8","215.94","175","60.03","28"
"06/08/12 17:32:50","105.0175","41.3","215.4","375","60.0","28"
"06/08/12 17:37:49","105.0213","40.1","214.94","169","60.03","28"
"06/08/12 17:42:50","105.0247","47.5","216.04","357","60.0","28"
"06/08/12 17:47:50","105.0277","32.1","215.22","79","60.03","27"
"06/08/12 17:52:49","105.0304","30.8","215.3","225","60.03","27"
"06/08/12 17:57:50","105.0319","14.5","215.24","14","60.03","27"
"06/08/12 18:02:49","105.0339","30.2","215.41","305","60.03","26"
"06/08/12 18:07:50","105.0358","26.2","215.68","35","60.03","26"
"06/08/12 18:12:49","105.0385","32.9","213.8","84","60.03","26"
"06/08/12 18:17:49","105.041","24.6","213.82","189","60.03","26"
"06/08/12 18:22:49","105.0429","12.1","214.6","139","60.0","26"
"06/08/12 18:27:50","105.0445","13.5","214.13","108","60.03","26"
"06/08/12 18:32:49","105.0457","14.6","213.32","26","60.03","26"
"06/08/12 18:37:50","105.0468","15.5","213.88","16","60.03","26"
"06/08/12 18:42:50","105.0477","14.1","214.07","71","60.03","26"
"06/08/12 18:47:50","105.0483","12.5","213.74","1","60.03","25"
"06/08/12 18:52:50","105.0488","0.0","213.35","0","60.03","25"
"06/08/12 18:57:49","105.0493","1.6","213.25","189","60.03","24"
"06/08/12 19:02:50","105.0504","13.7","213.08","168","60.03","24"
"06/08/12 19:07:49","105.0513","6.1","213.55","136","60.03","24"
"06/08/12 19:12:50","105.0519","0.0","213.46","0","60.03","23"
"06/08/12 19:17:49","105.0524","0.0","213.74","0","60.03","23"
"06/08/12 19:22:50","105.0528","0.0","212.66","0","60.03","23"
"06/08/12 19:32:50","105.0532","0.0","213.79","0","60.03","23"
"06/08/12 19:37:50","105.0535","0.0","213.63","0","60.0","23"
"06/08/12 19:42:50","105.0537","0.0","213.22","0","59.96","22"
"06/08/12 19:47:50","105.054","0.0","213.18","0","60.0","22"
"06/08/12 19:52:49","105.0544","14.6","212.36","166","60.03","22"
"06/08/12 19:57:49","105.0547","0.0","212.57","0","60.0","22"
"06/08/12 20:02:50","105.0551","0.0","212.19","0","60.0","22"
"06/08/12 20:07:50","105.0553","0.0","213.43","0","60.0","22"
"06/09/12 05:52:50","105.0558","0.0","214.47","0","60.03","18"
"06/09/12 05:57:50","105.0559","12.8","214.46","29","60.03","18"
"06/09/12 06:02:50","105.0563","9.5","215.14","139","60.03","19"
"06/09/12 06:07:50","105.0567","1.1","215.35","94","60.03","19"
"06/09/12 06:12:51","105.0572","0.0","215.36","191","60.0","19"
"06/09/12 06:17:51","105.0576","0.0","214.66","26","60.0","20"
"06/09/12 06:22:50","105.0581","0.0","214.15","0","60.03","20"
"06/09/12 06:27:49","105.0588","15.4","213.73","15","60.0","20"
"06/09/12 06:32:50","105.0596","14.5","214.07","3","60.0","20"
"06/09/12 06:37:50","105.0605","14.5","213.97","0","60.03","20"
"06/09/12 06:42:49","105.0615","14.8","213.48","4","60.0","21"
"06/09/12 06:47:51","105.0625","0.0","214.16","178","60.03","22"
"06/09/12 06:52:50","105.0636","11.3","213.5","15","60.0","22"
"06/09/12 06:57:50","105.065","15.0","213.33","16","60.03","22"
"06/09/12 07:02:50","105.0669","21.6","213.67","181","60.0","22"
"06/09/12 07:07:49","105.0688","28.5","214.0","242","60.0","23"
"06/09/12 07:12:50","105.0714","13.7","213.98","18","60.03","23"
"06/09/12 07:17:49","105.0729","24.9","213.97","296","60.0","24"
"06/09/12 07:22:49","105.0755","27.1","214.06","260","60.0","24"
"06/09/12 07:27:49","105.0773","48.1","215.33","341","60.0","24"
"06/09/12 07:32:50","105.0797","28.2","214.03","173","60.03","25"
"06/09/12 07:37:50","105.0817","28.4","214.68","250","60.03","25"
"06/09/12 07:42:51","105.0846","43.7","215.15","351","60.03","25"
"06/09/12 07:47:51","105.087","14.0","214.7","266","60.0","25"
"06/09/12 07:52:49","105.0887","38.2","214.72","175","60.03","26"
"06/09/12 07:57:50","105.0923","66.3","214.54","90","60.03","26"
"06/09/12 08:02:50","105.0952","80.6","216.13","396","60.0","26"
"06/09/12 08:07:49","105.0979","38.5","214.04","282","60.0","26"
"06/09/12 08:12:50","105.1017","82.2","214.57","407","60.0","27"
"06/09/12 08:17:49","105.1057","26.0","213.57","178","60.0","28"
"06/09/12 08:22:49","105.1118","83.3","215.12","411","60.0","29"
"06/09/12 08:27:50","105.1176","75.6","214.48","380","60.03","29"
"06/09/12 08:32:49","105.1223","82.9","215.38","410","60.03","30"
"06/09/12 08:37:50","105.1274","37.0","213.99","230","60.03","30"
"06/09/12 08:42:51","105.1328","93.2","215.56","455","60.0","31"
"06/09/12 08:47:50","105.1409","96.7","215.67","464","60.0","32"
"06/09/12 08:52:50","105.1476","112.1","215.97","533","60.0","32"
"06/09/12 08:57:50","105.1547","114.0","215.49","543","60.03","32"
"06/09/12 09:02:49","105.1629","108.2","215.86","514","60.03","32"
"06/09/12 09:07:49","105.1706","20.8","213.87","58","60.03","32"
"06/09/12 09:12:49","105.1789","109.4","216.01","523","60.0","32"
"06/09/12 09:17:49","105.1875","111.2","216.16","528","60.03","33"
"06/09/12 09:22:50","105.1963","113.7","216.4","539","60.0","33"
"06/09/12 09:27:50","105.2053","117.1","216.84","552","60.03","34"
"06/09/12 09:32:49","105.2144","118.5","216.08","561","60.03","34"
"06/09/12 09:37:51","105.2239","121.3","216.16","569","60.0","35"
"06/09/12 09:42:50","105.2333","123.2","216.24","576","60.03","35"
"06/09/12 09:47:50","105.243","123.7","215.9","584","60.0","36"
"06/09/12 09:52:50","105.2526","126.4","216.28","599","60.0","36"
"06/09/12 09:57:49","105.2625","128.1","215.59","606","60.0","36"
"06/09/12 10:02:49","105.2724","130.4","216.06","612","60.0","36"
"06/09/12 10:07:50","105.2825","126.0","215.53","593","60.03","36"
"06/09/12 10:12:50","105.2922","128.1","215.47","605","60.0","36"
"06/09/12 10:17:49","105.3022","130.4","215.19","618","60.0","37"
"06/09/12 10:22:50","105.3125","133.6","216.21","626","60.0","37"
"06/09/12 10:27:50","105.3231","130.7","216.72","613","60.03","37"
"06/09/12 10:32:50","105.3332","131.5","216.55","612","60.03","37"
"06/09/12 10:37:50","105.3436","136.6","215.61","637","60.0","37"
"06/09/12 10:42:50","105.3539","139.5","216.79","646","60.03","37"
"06/09/12 10:47:49","105.3649","140.3","217.23","646","60.03","37"
"06/09/12 10:52:49","105.3759","144.0","217.37","670","60.03","38"
"06/09/12 10:57:50","105.3872","145.0","216.97","674","60.03","38"
"06/09/12 11:02:49","105.3988","148.1","217.78","689","60.0","38"
"06/09/12 11:07:49","105.4105","149.0","217.26","689","60.0","39"
"06/09/12 11:12:50","105.422","148.5","216.78","683","60.0","39"
"06/09/12 11:17:49","105.4337","151.0","217.02","696","60.03","39"
"06/09/12 11:22:49","105.4458","64.0","214.78","366","60.0","40"
"06/09/12 11:27:51","105.4568","177.6","217.71","813","60.0","39"
"06/09/12 11:32:50","105.468","166.4","217.66","764","60.03","40"
"06/09/12 11:37:50","105.4802","131.9","216.98","617","60.03","40"
"06/09/12 11:42:50","105.4919","150.4","217.31","693","60.0","40"
"06/09/12 11:47:50","105.5037","151.4","217.43","697","60.03","40"
"06/09/12 11:52:50","105.5152","150.1","217.44","695","60.0","40"
"06/09/12 11:57:50","105.5267","152.0","216.98","701","60.03","40"
"06/09/12 12:02:50","105.5384","147.7","217.86","679","60.03","40"
"06/09/12 12:07:50","105.5499","124.7","217.24","580","60.0","40"
"06/09/12 12:12:50","105.5601","126.1","217.22","592","60.0","39"
"06/09/12 12:17:49","105.5713","61.5","214.91","310","60.03","40"
"06/09/12 12:22:49","105.5822","166.7","218.07","760","60.03","40"
"06/09/12 12:27:50","105.594","148.4","217.64","684","60.03","40"
"06/09/12 12:32:51","105.6057","158.2","217.44","727","60.0","40"
"06/09/12 12:37:49","105.6162","132.7","217.66","614","60.0","40"
"06/09/12 12:42:51","105.6252","148.0","217.67","685","60.0","39"
"06/09/12 12:47:50","105.6359","155.8","218.71","714","60.0","39"
"06/09/12 12:52:49","105.6456","135.5","217.0","628","60.0","38"
"06/09/12 12:57:49","105.6573","155.3","217.12","720","60.03","39"
"06/09/12 13:02:49","105.6692","153.6","217.68","708","60.0","39"
"06/09/12 13:07:49","105.681","153.6","217.38","705","60.03","40"
"06/09/12 13:12:49","105.6928","150.3","217.58","692","60.03","40"
"06/09/12 13:17:50","105.7046","148.9","218.5","688","60.03","40"
"06/09/12 13:22:50","105.7161","148.9","218.14","681","60.03","40"
"06/09/12 13:27:51","105.7274","148.1","217.33","685","60.0","40"
"06/09/12 13:32:50","105.7387","150.6","217.45","692","60.03","40"
"06/09/12 13:37:50","105.7502","145.7","217.59","671","60.0","41"
"06/09/12 13:42:50","105.7616","145.0","217.39","672","60.0","41"
"06/09/12 13:47:51","105.773","145.7","217.12","676","60.03","41"
"06/09/12 13:52:51","105.7841","143.2","217.29","665","60.03","41"
"06/09/12 13:57:50","105.7952","141.7","216.96","661","60.03","42"
"06/09/12 14:02:50","105.8062","142.4","217.89","661","60.03","42"
"06/09/12 14:07:50","105.8174","142.6","217.56","661","60.0","42"
"06/09/12 14:12:51","105.8283","137.2","217.55","638","60.0","42"
"06/09/12 14:17:50","105.8391","140.9","217.22","651","60.03","42"
"06/09/12 14:22:49","105.8497","138.3","216.15","643","60.0","42"
"06/09/12 14:27:50","105.8604","137.0","216.86","638","60.0","43"
"06/09/12 14:32:51","105.8708","128.2","216.96","601","60.0","43"
"06/09/12 14:37:49","105.881","131.6","215.53","618","60.0","43"
"06/09/12 14:42:49","105.8911","128.5","215.67","603","60.0","43"
"06/09/12 14:47:50","105.901","124.0","216.14","584","60.03","43"
"06/09/12 14:52:50","105.9108","128.6","216.58","605","60.03","43"
"06/09/12 14:57:49","105.9208","132.6","216.61","620","60.0","44"
"06/09/12 15:02:49","105.9309","126.3","216.49","594","60.0","44"
"06/09/12 15:07:51","105.9401","106.8","216.15","512","60.03","44"
"06/09/12 15:12:50","105.9477","96.4","215.05","465","60.03","44"
"06/09/12 15:17:49","105.9559","108.6","214.9","520","60.03","44"
"06/09/12 15:22:51","105.9644","100.3","215.24","482","60.0","43"
"06/09/12 15:27:49","105.971","65.8","214.45","336","60.03","43"
"06/09/12 15:32:50","105.9767","76.5","214.43","384","60.0","43"
"06/09/12 15:37:49","105.983","89.6","214.53","439","60.0","43"
"06/09/12 15:42:51","105.9913","110.4","215.31","528","60.0","43"
"06/09/12 15:47:50","105.9995","98.4","215.5","475","60.0","43"
"06/09/12 15:52:50","106.0068","90.1","215.23","438","60.03","43"
"06/09/12 15:57:49","106.013","70.9","214.9","355","60.0","43"
"06/09/12 16:02:50","106.0189","84.6","215.92","415","60.03","42"
"06/09/12 16:07:51","106.0267","104.5","215.93","497","60.0","41"
"06/09/12 16:12:50","106.0342","91.9","215.33","447","60.03","41"
"06/09/12 16:17:49","106.0415","97.0","215.94","468","60.0","40"
"06/09/12 16:22:50","106.0486","92.5","215.65","447","60.03","40"
"06/09/12 16:27:50","106.0553","83.3","215.56","407","60.03","39"
"06/09/12 16:32:50","106.0621","89.4","214.57","440","60.03","38"
"06/09/12 16:37:50","106.0686","63.1","214.25","322","60.0","38"
"06/09/12 16:42:50","106.0746","84.0","215.01","414","60.0","38"
"06/09/12 16:47:50","106.0795","71.7","215.56","355","60.0","37"
"06/09/12 16:52:50","106.085","84.7","214.91","416","60.0","37"
"06/09/12 16:57:50","106.0914","78.7","215.29","386","60.0","36"
"06/09/12 17:02:50","106.0972","71.0","215.77","352","60.03","36"
"06/09/12 17:07:51","106.1025","65.0","214.78","331","60.0","35"
"06/09/12 17:12:50","106.1072","67.4","215.21","321","60.03","35"
"06/09/12 17:17:50","106.1116","68.0","215.31","192","60.03","34"
"06/09/12 17:22:50","106.1156","40.0","215.98","244","60.0","34"
"06/09/12 17:27:50","106.1195","47.9","215.0","409","60.03","33"
"06/09/12 17:32:51","106.1233","41.2","215.52","222","60.03","32"
"06/09/12 17:37:50","106.1267","36.9","214.91","135","60.03","32"
"06/09/12 17:42:49","106.1298","33.8","214.22","244","60.03","31"
"06/09/12 17:47:49","106.1327","40.5","213.86","246","60.03","31"
"06/09/12 17:52:50","106.1353","27.5","214.14","167","60.03","30"
"06/09/12 17:57:50","106.1377","25.1","213.93","142","60.0","30"
"06/09/12 18:02:51","106.1397","36.9","213.93","125","60.03","29"
"06/09/12 18:07:49","106.1416","30.6","213.51","66","60.03","29"
"06/09/12 18:12:50","106.1431","29.7","214.15","24","60.03","29"
"06/09/12 18:17:51","106.1446","24.3","213.65","232","60.0","29"
"06/09/12 18:22:50","106.1458","14.9","213.58","12","60.07","28"
"06/09/12 18:27:49","106.1468","13.2","214.07","2","60.03","28"
"06/09/12 18:32:52","106.1477","11.1","213.8","45","60.0","28"
"06/09/12 18:37:51","106.1485","11.8","213.58","67","60.0","28"
"06/09/12 18:42:50","106.1491","15.6","213.34","1","60.03","28"
"06/09/12 18:47:51","106.1496","13.4","213.53","2","60.03","28"
"06/09/12 18:52:49","106.1501","0.0","212.8","0","60.0","28"
"06/09/12 18:57:50","106.1505","11.6","213.35","1","60.0","27"
"06/09/12 19:02:51","106.1508","0.0","214.26","0","60.03","27"
"06/09/12 19:07:49","106.1512","0.0","214.03","0","60.03","27"
"06/09/12 19:12:50","106.1515","13.9","213.63","4","60.03","26"
"06/09/12 19:17:51","106.1518","0.0","213.8","0","60.0","26"
"06/10/12 06:17:09","106.1523","7.3","213.11","193","60.03","23"
"06/10/12 06:22:07","106.1528","12.1","213.13","73","60.03","23"
"06/10/12 06:27:08","106.1535","14.7","214.29","0","60.03","23"
"06/10/12 06:32:08","106.1544","14.9","214.06","80","60.0","23"
"06/10/12 06:37:09","106.1554","11.2","213.94","26","60.03","24"
"06/10/12 06:42:09","106.1566","17.0","214.27","19","60.0","24"
"06/10/12 06:47:07","106.158","18.1","213.01","208","60.03","24"
"06/10/12 06:52:07","106.1595","13.7","213.58","29","60.03","24"
"06/10/12 06:57:09","106.1614","14.5","214.43","320","60.03","25"
"06/10/12 07:02:08","106.1634","32.8","213.79","114","60.0","25"
"06/10/12 07:07:08","106.1658","28.5","213.5","282","60.03","25"
"06/10/12 07:12:07","106.1683","30.7","213.94","90","60.0","25"
"06/10/12 07:17:08","106.1712","34.2","214.49","90","60.03","26"
"06/10/12 07:22:08","106.1744","46.3","214.37","181","60.03","26"
"06/10/12 07:27:08","106.1778","39.1","213.84","323","60.0","26"
"06/10/12 07:32:08","106.1813","53.8","213.95","392","60.03","27"
"06/10/12 07:37:08","106.1852","62.1","213.96","193","60.0","27"
"06/10/12 07:42:08","106.1893","56.5","214.48","86","60.03","27"
"06/10/12 07:47:09","106.1933","50.4","213.88","394","60.0","28"
"06/10/12 07:52:07","106.1974","62.4","214.15","321","60.03","28"
"06/10/12 07:57:07","106.2024","66.6","213.85","337","60.03","29"
"06/10/12 08:02:08","106.2077","70.6","213.9","357","60.0","29"
"06/10/12 08:07:08","106.2134","74.9","214.28","372","60.0","30"
"06/10/12 08:12:09","106.2193","78.8","214.96","386","60.0","30"
"06/10/12 08:17:08","106.2255","79.3","216.13","389","60.0","31"
"06/10/12 08:22:08","106.2313","72.9","215.71","365","60.0","31"
"06/10/12 08:27:09","106.2373","76.4","215.39","380","60.0","32"
"06/10/12 08:32:07","106.2433","85.2","216.42","409","60.0","32"
"06/10/12 08:37:09","106.2502","90.8","215.69","444","60.03","32"
"06/10/12 08:42:08","106.2574","90.7","216.85","435","60.0","33"
"06/10/12 08:47:08","106.2642","85.1","215.58","418","60.0","33"
"06/10/12 08:52:08","106.2712","96.7","215.94","465","60.03","33"
"06/10/12 08:57:09","106.2792","102.9","216.53","489","60.07","33"
"06/10/12 09:02:08","106.2871","102.8","216.49","493","60.0","34"
"06/10/12 09:07:08","106.2952","107.5","216.8","508","60.0","34"
"06/10/12 09:12:08","106.3037","111.2","216.68","527","60.03","34"
"06/10/12 09:17:09","106.3125","114.2","216.64","538","60.03","34"